^^
Your Local Weather - Clay, NY Station Historical Data
Daily Summary for April 16, 2017 Units:  English    Metric   Both
« Previous Day
Next Day »
Daily Weekly Monthly Yearly Custom
  High: Low: Average:
Temperature: 80.1 °F 62.3 °F 70 °F
Dew Point: 59.4 °F 49.9 °F 52.3 °F
Humidity: 71% 36% 54%
Wind Speed: 10.0mph 1.0mph 4.9mph
Wind Gust: 16.0mph - -
Wind- - WSW
Pressure: 29.86 in 29.62 in -
Precipitation: 0.02 in    
Historical Graphs
 
 
Tabular Data for April 16, 2017
Time Temperature Dew Point Pressure Wind Wind Speed Wind Gust Humidity Rainfall Rate (Hourly) solar
00:02 67.2 °F 51.0 °F 29.86 in SW 6.0 mph 9.0 mph 56% 0.00 in 0 W/m2
00:05 67.3 °F 50.6 °F 29.86 in SW 6.0 mph 9.0 mph 55% 0.00 in 0 W/m2
00:12 67.3 °F 50.6 °F 29.86 in SSW 6.0 mph 6.0 mph 55% 0.00 in 0 W/m2
00:18 67.2 °F 51.0 °F 29.86 in SSW 5.0 mph 7.0 mph 56% 0.00 in 0 W/m2
00:23 67.0 °F 50.8 °F 29.86 in South 4.0 mph 5.0 mph 56% 0.00 in 0 W/m2
00:29 67.1 °F 50.9 °F 29.86 in NW 4.0 mph 4.0 mph 56% 0.00 in 0 W/m2
00:36 67.2 °F 51.0 °F 29.86 in SW 5.0 mph 11.0 mph 56% 0.00 in 0 W/m2
00:42 67.3 °F 51.1 °F 29.86 in WSW 6.0 mph 7.0 mph 56% 0.00 in 0 W/m2
00:48 67.2 °F 51.0 °F 29.86 in WSW 6.0 mph 7.0 mph 56% 0.00 in 0 W/m2
00:53 67.1 °F 50.9 °F 29.86 in SSW 5.0 mph 6.0 mph 56% 0.00 in 0 W/m2
01:00 67.2 °F 51.0 °F 29.86 in SSW 6.0 mph 6.0 mph 56% 0.00 in 0 W/m2
01:06 67.2 °F 51.4 °F 29.85 in SW 5.0 mph 6.0 mph 57% 0.00 in 0 W/m2
01:12 67.2 °F 51.4 °F 29.85 in SSE 5.0 mph 7.0 mph 57% 0.00 in 0 W/m2
01:18 67.1 °F 51.4 °F 29.85 in SW 5.0 mph 7.0 mph 57% 0.00 in 0 W/m2
01:24 66.9 °F 51.2 °F 29.85 in WSW 5.0 mph 5.0 mph 57% 0.00 in 0 W/m2
01:36 66.8 °F 51.1 °F 29.85 in SW 5.0 mph 8.0 mph 57% 0.00 in 0 W/m2
01:42 66.8 °F 51.1 °F 29.84 in SW 5.0 mph 5.0 mph 57% 0.00 in 0 W/m2
01:48 66.6 °F 50.9 °F 29.84 in SW 5.0 mph 6.0 mph 57% 0.00 in 0 W/m2
01:54 66.5 °F 51.3 °F 29.84 in SSW 5.0 mph 5.0 mph 58% 0.00 in 0 W/m2
02:00 66.6 °F 51.4 °F 29.83 in SW 4.0 mph 4.0 mph 58% 0.00 in 0 W/m2
02:06 66.9 °F 51.2 °F 29.83 in SW 5.0 mph 7.0 mph 57% 0.00 in 0 W/m2
02:12 67.1 °F 51.4 °F 29.83 in SW 5.0 mph 8.0 mph 57% 0.00 in 0 W/m2
02:18 67.2 °F 51.4 °F 29.83 in SW 5.0 mph 10.0 mph 57% 0.00 in 0 W/m2
02:24 67.3 °F 51.5 °F 29.83 in SW 6.0 mph 6.0 mph 57% 0.00 in 0 W/m2
02:30 67.2 °F 51.4 °F 29.83 in SSW 5.0 mph 5.0 mph 57% 0.00 in 0 W/m2
02:36 67.3 °F 51.5 °F 29.82 in WSW 5.0 mph 5.0 mph 57% 0.00 in 0 W/m2
02:42 67.3 °F 51.5 °F 29.82 in WSW 5.0 mph 5.0 mph 57% 0.00 in 0 W/m2
02:48 67.3 °F 51.5 °F 29.82 in South 5.0 mph 12.0 mph 57% 0.00 in 0 W/m2
02:54 67.2 °F 51.4 °F 29.82 in SW 4.0 mph 5.0 mph 57% 0.00 in 0 W/m2
03:00 67.2 °F 51.4 °F 29.81 in SW 4.0 mph 4.0 mph 57% 0.00 in 0 W/m2
03:06 67.2 °F 51.4 °F 29.81 in SSW 4.0 mph 7.0 mph 57% 0.00 in 0 W/m2
03:12 67.2 °F 51.4 °F 29.81 in SE 5.0 mph 5.0 mph 57% 0.00 in 0 W/m2
03:18 67.2 °F 51.9 °F 29.81 in SE 5.0 mph 8.0 mph 58% 0.00 in 0 W/m2
03:24 67.3 °F 51.5 °F 29.81 in SW 5.0 mph 10.0 mph 57% 0.00 in 0 W/m2
03:30 67.4 °F 51.6 °F 29.81 in SSW 6.0 mph 6.0 mph 57% 0.00 in 0 W/m2
03:36 67.4 °F 51.6 °F 29.81 in SW 6.0 mph 7.0 mph 57% 0.00 in 0 W/m2
03:42 67.2 °F 51.9 °F 29.81 in SSE 5.0 mph 8.0 mph 58% 0.00 in 0 W/m2
03:48 67.1 °F 51.8 °F 29.81 in SW 4.0 mph 8.0 mph 58% 0.00 in 0 W/m2
04:00 67.1 °F 51.8 °F 29.81 in SW 4.0 mph 4.0 mph 58% 0.00 in 0 W/m2
04:06 67.0 °F 51.7 °F 29.81 in SSW 4.0 mph 4.0 mph 58% 0.00 in 0 W/m2
04:12 67.1 °F 51.8 °F 29.81 in SW 5.0 mph 11.0 mph 58% 0.00 in 0 W/m2
04:18 67.0 °F 51.7 °F 29.81 in South 5.0 mph 11.0 mph 58% 0.00 in 0 W/m2
04:24 66.9 °F 51.6 °F 29.81 in South 4.0 mph 5.0 mph 58% 0.00 in 0 W/m2
04:30 66.9 °F 51.6 °F 29.81 in SSW 5.0 mph 5.0 mph 58% 0.00 in 0 W/m2
04:36 67.0 °F 51.7 °F 29.81 in WSW 5.0 mph 7.0 mph 58% 0.00 in 0 W/m2
04:42 66.9 °F 51.6 °F 29.80 in SW 5.0 mph 5.0 mph 58% 0.00 in 0 W/m2
04:48 66.8 °F 51.5 °F 29.80 in WSW 4.0 mph 7.0 mph 58% 0.00 in 0 W/m2
04:54 66.8 °F 51.5 °F 29.80 in WSW 5.0 mph 6.0 mph 58% 0.00 in 0 W/m2
05:00 66.8 °F 51.5 °F 29.80 in SW 5.0 mph 6.0 mph 58% 0.00 in 0 W/m2
05:06 66.8 °F 51.5 °F 29.80 in SW 5.0 mph 7.0 mph 58% 0.00 in 0 W/m2
05:12 66.9 °F 51.6 °F 29.80 in WSW 5.0 mph 5.0 mph 58% 0.00 in 0 W/m2
05:18 66.9 °F 51.2 °F 29.80 in SW 6.0 mph 6.0 mph 57% 0.00 in 0 W/m2
05:24 66.9 °F 51.2 °F 29.80 in SSW 5.0 mph 6.0 mph 57% 0.00 in 0 W/m2
05:30 66.8 °F 51.1 °F 29.80 in SW 5.0 mph 5.0 mph 57% 0.00 in 0 W/m2
05:36 66.8 °F 51.1 °F 29.80 in South 4.0 mph 5.0 mph 57% 0.00 in 0 W/m2
05:42 66.8 °F 51.5 °F 29.80 in SW 5.0 mph 8.0 mph 58% 0.00 in 0 W/m2
05:48 66.7 °F 51.0 °F 29.80 in SSE 4.0 mph 8.0 mph 57% 0.00 in 0 W/m2
05:54 66.8 °F 51.1 °F 29.80 in SW 4.0 mph 5.0 mph 57% 0.00 in 0 W/m2
06:00 66.9 °F 51.2 °F 29.80 in SW 5.0 mph 5.0 mph 57% 0.00 in 0 W/m2
06:06 66.8 °F 51.1 °F 29.80 in SW 4.0 mph 7.0 mph 57% 0.00 in 0 W/m2
06:12 66.6 °F 50.9 °F 29.80 in SW 5.0 mph 5.0 mph 57% 0.00 in 0 W/m2
06:18 66.6 °F 50.9 °F 29.80 in SSW 4.0 mph 5.0 mph 57% 0.00 in 0 W/m2
06:24 66.6 °F 50.9 °F 29.80 in SW 5.0 mph 7.0 mph 57% 0.00 in 5 W/m2
06:30 66.6 °F 50.9 °F 29.80 in SSW 5.0 mph 5.0 mph 57% 0.00 in 9 W/m2
06:36 66.6 °F 51.4 °F 29.80 in West 5.0 mph 7.0 mph 58% 0.00 in 12 W/m2
06:42 66.5 °F 50.8 °F 29.80 in SW 5.0 mph 5.0 mph 57% 0.00 in 18 W/m2
06:48 66.5 °F 51.3 °F 29.80 in SW 4.0 mph 5.0 mph 58% 0.00 in 23 W/m2
06:54 66.4 °F 51.2 °F 29.80 in WSW 3.0 mph 6.0 mph 58% 0.00 in 28 W/m2
07:00 66.5 °F 50.8 °F 29.81 in SW 4.0 mph 4.0 mph 57% 0.00 in 42 W/m2
07:06 66.8 °F 51.1 °F 29.80 in WSW 5.0 mph 5.0 mph 57% 0.00 in 67 W/m2
07:12 67.0 °F 51.3 °F 29.80 in SSW 4.0 mph 7.0 mph 57% 0.00 in 60 W/m2
07:18 67.1 °F 51.4 °F 29.80 in South 4.0 mph 7.0 mph 57% 0.00 in 53 W/m2
07:24 67.3 °F 51.1 °F 29.80 in SW 4.0 mph 4.0 mph 56% 0.00 in 53 W/m2
07:30 67.4 °F 51.2 °F 29.80 in South 4.0 mph 6.0 mph 56% 0.00 in 53 W/m2
07:36 67.7 °F 51.4 °F 29.80 in SSW 4.0 mph 6.0 mph 56% 0.00 in 144 W/m2
07:42 68.2 °F 51.4 °F 29.79 in SSW 4.0 mph 4.0 mph 55% 0.00 in 169 W/m2
07:48 68.5 °F 51.2 °F 29.79 in SW 4.0 mph 7.0 mph 54% 0.00 in 190 W/m2
07:54 68.9 °F 51.6 °F 29.79 in WSW 4.0 mph 6.0 mph 54% 0.00 in 209 W/m2
08:00 69.3 °F 51.4 °F 29.79 in SW 4.0 mph 4.0 mph 53% 0.00 in 204 W/m2
08:06 69.6 °F 51.2 °F 29.79 in SSW 4.0 mph 6.0 mph 52% 0.00 in 202 W/m2
08:12 69.8 °F 51.4 °F 29.79 in SW 4.0 mph 4.0 mph 52% 0.00 in 230 W/m2
08:18 70.1 °F 51.7 °F 29.79 in West 5.0 mph 6.0 mph 52% 0.00 in 225 W/m2
08:24 70.5 °F 51.5 °F 29.79 in WSW 5.0 mph 7.0 mph 51% 0.00 in 220 W/m2
08:30 70.8 °F 51.2 °F 29.78 in SW 4.0 mph 4.0 mph 50% 0.00 in 281 W/m2
08:36 71.3 °F 51.1 °F 29.78 in WSW 4.0 mph 4.0 mph 49% 0.00 in 262 W/m2
08:42 71.7 °F 51.5 °F 29.78 in WSW 4.0 mph 6.0 mph 49% 0.00 in 288 W/m2
08:48 72.0 °F 51.2 °F 29.78 in WSW 5.0 mph 6.0 mph 48% 0.00 in 318 W/m2
08:54 72.2 °F 51.4 °F 29.78 in WNW 5.0 mph 7.0 mph 48% 0.00 in 267 W/m2
09:00 72.5 °F 51.1 °F 29.77 in West 5.0 mph 5.0 mph 47% 0.00 in 327 W/m2
09:38 73.8 °F 51.7 °F 29.76 in WSW 7.0 mph 7.0 mph 46% 0.00 in 536 W/m2
09:44 74.3 °F 51.6 °F 29.76 in SW 6.0 mph 12.0 mph 45% 0.00 in 555 W/m2
09:50 74.3 °F 51.0 °F 29.75 in SSW 6.0 mph 6.0 mph 44% 0.00 in 577 W/m2
09:56 74.9 °F 52.1 °F 29.76 in WSW 6.0 mph 7.0 mph 45% 0.00 in 596 W/m2
10:02 75.1 °F 51.1 °F 29.76 in SSW 6.0 mph 8.0 mph 43% 0.00 in 619 W/m2
10:08 75.1 °F 51.1 °F 29.75 in West 7.0 mph 12.0 mph 43% 0.00 in 643 W/m2
10:14 75.6 °F 50.9 °F 29.75 in SW 6.0 mph 9.0 mph 42% 0.00 in 671 W/m2
10:20 75.6 °F 51.5 °F 29.75 in WSW 6.0 mph 6.0 mph 43% 0.00 in 617 W/m2
10:26 76.1 °F 52.0 °F 29.75 in West 6.0 mph 11.0 mph 43% 0.00 in 647 W/m2
10:32 75.5 °F 52.1 °F 29.75 in WSW 7.0 mph 11.0 mph 44% 0.00 in 744 W/m2
10:38 75.9 °F 51.2 °F 29.75 in WNW 7.0 mph 11.0 mph 42% 0.00 in 673 W/m2
10:44 76.1 °F 50.7 °F 29.74 in West 7.0 mph 9.0 mph 41% 0.00 in 606 W/m2
10:50 76.0 °F 50.6 °F 29.74 in SSW 6.0 mph 9.0 mph 41% 0.00 in 788 W/m2
10:56 76.4 °F 51.0 °F 29.74 in West 7.0 mph 9.0 mph 41% 0.00 in 744 W/m2
11:02 77.1 °F 52.9 °F 29.74 in WNW 6.0 mph 12.0 mph 43% 0.00 in 780 W/m2
11:08 77.0 °F 51.5 °F 29.73 in West 5.0 mph 14.0 mph 41% 0.00 in 745 W/m2
11:14 76.6 °F 50.5 °F 29.73 in WSW 6.0 mph 7.0 mph 40% 0.00 in 812 W/m2
11:20 77.3 °F 51.8 °F 29.73 in SW 7.0 mph 7.0 mph 41% 0.00 in 777 W/m2
11:26 77.3 °F 51.8 °F 29.73 in West 7.0 mph 11.0 mph 41% 0.00 in 854 W/m2
11:32 78.4 °F 53.4 °F 29.73 in SW 6.0 mph 9.0 mph 42% 0.00 in 838 W/m2
11:38 77.8 °F 51.5 °F 29.72 in WNW 7.0 mph 9.0 mph 40% 0.00 in 717 W/m2
11:44 77.1 °F 50.9 °F 29.71 in SSW 9.0 mph 13.0 mph 40% 0.00 in 638 W/m2
11:50 77.5 °F 51.9 °F 29.72 in West 8.0 mph 10.0 mph 41% 0.00 in 724 W/m2
11:56 77.6 °F 51.4 °F 29.72 in WSW 7.0 mph 10.0 mph 40% 0.00 in 812 W/m2
12:02 78.0 °F 52.4 °F 29.71 in SSW 7.0 mph 10.0 mph 41% 0.00 in 800 W/m2
12:08 78.2 °F 52.6 °F 29.71 in South 7.0 mph 10.0 mph 41% 0.00 in 837 W/m2
12:14 78.0 °F 51.7 °F 29.71 in SW 7.0 mph 13.0 mph 40% 0.00 in 835 W/m2
12:20 78.0 °F 52.4 °F 29.70 in WSW 7.0 mph 9.0 mph 41% 0.00 in 835 W/m2
12:26 78.2 °F 51.2 °F 29.70 in SSW 7.0 mph 16.0 mph 39% 0.00 in 870 W/m2
12:32 78.3 °F 52.7 °F 29.70 in SW 7.0 mph 8.0 mph 41% 0.00 in 900 W/m2
12:38 78.7 °F 53.0 °F 29.69 in WSW 4.0 mph 8.0 mph 41% 0.00 in 953 W/m2
12:44 78.1 °F 51.8 °F 29.69 in West 6.0 mph 9.0 mph 40% 0.00 in 287 W/m2
12:50 77.7 °F 51.5 °F 29.68 in WSW 9.0 mph 9.0 mph 40% 0.00 in 860 W/m2
12:56 77.8 °F 51.5 °F 29.68 in SW 8.0 mph 11.0 mph 40% 0.00 in 213 W/m2
13:02 77.5 °F 51.3 °F 29.68 in SSW 9.0 mph 10.0 mph 40% 0.00 in 265 W/m2
13:14 78.8 °F 52.4 °F 29.68 in SW 6.0 mph 9.0 mph 40% 0.00 in 248 W/m2
13:20 79.5 °F 51.7 °F 29.67 in West 6.0 mph 6.0 mph 38% 0.00 in 884 W/m2
13:26 79.7 °F 52.5 °F 29.66 in WSW 7.0 mph 7.0 mph 39% 0.00 in 979 W/m2
13:32 80.1 °F 51.5 °F 29.66 in SW 6.0 mph 12.0 mph 37% 0.00 in 954 W/m2
13:38 79.9 °F 51.3 °F 29.66 in SW 6.0 mph 16.0 mph 37% 0.00 in 294 W/m2
13:44 79.8 °F 51.9 °F 29.65 in WNW 6.0 mph 6.0 mph 38% 0.00 in 316 W/m2
13:50 79.9 °F 53.4 °F 29.65 in West 6.0 mph 6.0 mph 40% 0.00 in 306 W/m2
13:56 79.2 °F 49.9 °F 29.65 in SSW 7.0 mph 13.0 mph 36% 0.00 in 302 W/m2
14:02 79.7 °F 51.1 °F 29.65 in WSW 8.0 mph 9.0 mph 37% 0.00 in 316 W/m2
14:08 79.2 °F 50.7 °F 29.65 in WSW 8.0 mph 9.0 mph 37% 0.00 in 264 W/m2
14:14 79.1 °F 51.3 °F 29.64 in SSW 9.0 mph 9.0 mph 38% 0.00 in 318 W/m2
14:20 79.4 °F 50.1 °F 29.63 in NW 8.0 mph 8.0 mph 36% 0.00 in 420 W/m2
14:26 79.3 °F 50.0 °F 29.63 in SW 10.0 mph 11.0 mph 36% 0.00 in 292 W/m2
14:32 79.2 °F 50.7 °F 29.63 in WSW 9.0 mph 10.0 mph 37% 0.00 in 214 W/m2
14:38 79.2 °F 50.7 °F 29.63 in SW 7.0 mph 11.0 mph 37% 0.00 in 401 W/m2
14:44 79.3 °F 51.5 °F 29.62 in South 5.0 mph 9.0 mph 38% 0.00 in 100 W/m2
14:50 78.6 °F 50.9 °F 29.63 in SSW 6.0 mph 10.0 mph 38% 0.00 in 30 W/m2
14:56 74.6 °F 55.8 °F 29.65 in West 9.0 mph 11.0 mph 52% 0.00 in 123 W/m2
15:02 71.8 °F 57.6 °F 29.65 in WNW 6.0 mph 8.0 mph 61% 0.00 in 322 W/m2
15:08 71.6 °F 57.9 °F 29.66 in WSW 4.0 mph 8.0 mph 62% 0.00 in 167 W/m2
15:14 71.4 °F 57.2 °F 29.66 in West 4.0 mph 9.0 mph 61% 0.00 in 46 W/m2
15:20 70.0 °F 58.1 °F 29.66 in SW 6.0 mph 6.0 mph 66% 0.04 in 255 W/m2
15:26 70.0 °F 58.1 °F 29.66 in West 6.0 mph 6.0 mph 66% 0.04 in 299 W/m2
15:32 71.3 °F 59.4 °F 29.66 in West 5.0 mph 8.0 mph 66% 0.00 in 466 W/m2
15:38 71.5 °F 58.2 °F 29.66 in SSW 7.0 mph 8.0 mph 63% 0.00 in 216 W/m2
15:44 71.5 °F 58.2 °F 29.66 in West 5.0 mph 7.0 mph 63% 0.00 in 200 W/m2
15:50 71.8 °F 58.1 °F 29.66 in SW 5.0 mph 7.0 mph 62% 0.00 in 345 W/m2
15:56 72.1 °F 57.9 °F 29.66 in SW 7.0 mph 10.0 mph 61% 0.00 in 114 W/m2
16:02 71.9 °F 57.7 °F 29.67 in WSW 6.0 mph 7.0 mph 61% 0.00 in 102 W/m2
16:08 71.9 °F 57.7 °F 29.66 in SW 5.0 mph 11.0 mph 61% 0.00 in 137 W/m2
16:14 72.0 °F 57.8 °F 29.67 in SW 5.0 mph 10.0 mph 61% 0.00 in 192 W/m2
16:20 72.7 °F 58.0 °F 29.67 in West 5.0 mph 7.0 mph 60% 0.00 in 230 W/m2
16:26 73.0 °F 57.8 °F 29.66 in SW 6.0 mph 9.0 mph 59% 0.00 in 290 W/m2
16:32 73.1 °F 57.0 °F 29.67 in West 6.0 mph 7.0 mph 57% 0.00 in 213 W/m2
16:38 74.2 °F 56.0 °F 29.67 in WSW 7.0 mph 7.0 mph 53% 0.00 in 213 W/m2
16:44 74.3 °F 55.5 °F 29.67 in WNW 6.0 mph 7.0 mph 52% 0.00 in 165 W/m2
16:50 74.3 °F 53.9 °F 29.68 in NW 6.0 mph 6.0 mph 49% 0.00 in 132 W/m2
16:56 74.0 °F 51.3 °F 29.68 in WSW 8.0 mph 10.0 mph 45% 0.00 in 128 W/m2
17:02 73.8 °F 51.1 °F 29.68 in NW 7.0 mph 7.0 mph 45% 0.00 in 116 W/m2
17:08 73.8 °F 52.3 °F 29.68 in NW 5.0 mph 7.0 mph 47% 0.00 in 118 W/m2
17:14 73.4 °F 52.5 °F 29.68 in NW 5.0 mph 6.0 mph 48% 0.00 in 160 W/m2
17:20 73.2 °F 52.3 °F 29.68 in WNW 5.0 mph 8.0 mph 48% 0.00 in 141 W/m2
17:26 72.9 °F 52.6 °F 29.69 in WNW 5.0 mph 8.0 mph 49% 0.00 in 83 W/m2
17:32 72.9 °F 51.5 °F 29.69 in West 5.0 mph 11.0 mph 47% 0.00 in 167 W/m2
17:38 73.1 °F 52.2 °F 29.69 in West 5.0 mph 11.0 mph 48% 0.00 in 160 W/m2
17:44 73.2 °F 52.3 °F 29.69 in WNW 4.0 mph 9.0 mph 48% 0.00 in 93 W/m2
17:50 72.8 °F 52.0 °F 29.69 in WNW 3.0 mph 3.0 mph 48% 0.00 in 79 W/m2
17:56 72.4 °F 52.2 °F 29.70 in NW 4.0 mph 8.0 mph 49% 0.00 in 65 W/m2
18:02 71.3 °F 52.8 °F 29.70 in NW 6.0 mph 6.0 mph 52% 0.00 in 53 W/m2
18:08 70.7 °F 52.7 °F 29.71 in West 5.0 mph 8.0 mph 53% 0.00 in 32 W/m2
18:14 70.2 °F 52.8 °F 29.70 in NW 5.0 mph 8.0 mph 54% 0.00 in 25 W/m2
18:20 69.7 °F 52.8 °F 29.71 in NW 5.0 mph 5.0 mph 55% 0.00 in 21 W/m2
18:26 69.3 °F 52.9 °F 29.71 in NW 4.0 mph 7.0 mph 56% 0.00 in 19 W/m2
18:32 69.1 °F 52.7 °F 29.71 in WNW 4.0 mph 6.0 mph 56% 0.00 in 25 W/m2
18:38 69.0 °F 52.6 °F 29.71 in WNW 4.0 mph 6.0 mph 56% 0.00 in 67 W/m2
18:44 69.0 °F 53.1 °F 29.71 in NW 4.0 mph 4.0 mph 57% 0.00 in 49 W/m2
18:50 68.7 °F 52.8 °F 29.71 in WNW 4.0 mph 5.0 mph 57% 0.00 in 30 W/m2
18:56 68.6 °F 53.2 °F 29.71 in WNW 4.0 mph 5.0 mph 58% 0.00 in 32 W/m2
19:02 68.5 °F 52.7 °F 29.71 in WNW 4.0 mph 4.0 mph 57% 0.00 in 28 W/m2
19:08 68.4 °F 53.0 °F 29.71 in WNW 3.0 mph 4.0 mph 58% 0.00 in 37 W/m2
19:14 68.3 °F 52.9 °F 29.72 in NNW 3.0 mph 4.0 mph 58% 0.00 in 16 W/m2
19:20 68.1 °F 52.8 °F 29.72 in WNW 4.0 mph 4.0 mph 58% 0.00 in 18 W/m2
19:26 68.1 °F 52.8 °F 29.72 in WNW 4.0 mph 5.0 mph 58% 0.00 in 39 W/m2
19:32 67.8 °F 52.9 °F 29.72 in WNW 4.0 mph 4.0 mph 59% 0.00 in 19 W/m2
19:38 67.3 °F 52.5 °F 29.73 in WNW 4.0 mph 7.0 mph 59% 0.00 in 9 W/m2
19:44 67.2 °F 52.8 °F 29.73 in WNW 5.0 mph 5.0 mph 60% 0.00 in 5 W/m2
19:50 66.9 °F 52.6 °F 29.73 in NW 4.0 mph 4.0 mph 60% 0.00 in 0 W/m2
19:56 66.7 °F 52.8 °F 29.73 in WNW 4.0 mph 7.0 mph 61% 0.00 in 0 W/m2
20:02 66.3 °F 52.9 °F 29.74 in WNW 3.0 mph 4.0 mph 62% 0.00 in 0 W/m2
20:08 65.9 °F 52.9 °F 29.74 in North 3.0 mph 4.0 mph 63% 0.00 in 0 W/m2
20:16 65.5 °F 52.6 °F 29.74 in NW 3.0 mph 3.0 mph 63% 0.00 in 0 W/m2
20:22 65.4 °F 52.9 °F 29.74 in NW 4.0 mph 5.0 mph 64% 0.00 in 0 W/m2
20:28 65.2 °F 52.7 °F 29.74 in WNW 4.0 mph 5.0 mph 64% 0.00 in 0 W/m2
20:34 65.0 °F 52.9 °F 29.74 in NNW 4.0 mph 6.0 mph 65% 0.00 in 0 W/m2
20:40 64.7 °F 53.1 °F 29.74 in NW 3.0 mph 4.0 mph 66% 0.00 in 0 W/m2
20:46 64.4 °F 52.8 °F 29.75 in WNW 2.0 mph 2.0 mph 66% 0.00 in 0 W/m2
20:58 64.4 °F 52.8 °F 29.75 in WNW 3.0 mph 3.0 mph 66% 0.00 in 0 W/m2
21:04 64.2 °F 52.6 °F 29.75 in West 3.0 mph 6.0 mph 66% 0.00 in 0 W/m2
21:10 64.1 °F 52.9 °F 29.76 in WNW 3.0 mph 3.0 mph 67% 0.00 in 0 W/m2
21:16 63.9 °F 52.7 °F 29.76 in West 2.0 mph 3.0 mph 67% 0.00 in 0 W/m2
21:22 63.7 °F 52.9 °F 29.76 in NW 2.0 mph 2.0 mph 68% 0.00 in 0 W/m2
21:28 63.7 °F 52.9 °F 29.76 in WNW 2.0 mph 4.0 mph 68% 0.00 in 0 W/m2
21:34 63.8 °F 53.0 °F 29.76 in WNW 3.0 mph 7.0 mph 68% 0.00 in 0 W/m2
21:40 63.8 °F 53.0 °F 29.76 in NW 3.0 mph 3.0 mph 68% 0.00 in 0 W/m2
21:46 63.7 °F 52.9 °F 29.76 in NW 2.0 mph 3.0 mph 68% 0.00 in 0 W/m2
21:52 63.6 °F 53.2 °F 29.77 in West 2.0 mph 2.0 mph 69% 0.00 in 0 W/m2
21:58 63.7 °F 53.3 °F 29.77 in WSW 2.0 mph 2.0 mph 69% 0.00 in 0 W/m2
22:04 63.7 °F 52.9 °F 29.76 in WNW 2.0 mph 7.0 mph 68% 0.00 in 0 W/m2
22:10 63.8 °F 53.0 °F 29.77 in WNW 2.0 mph 2.0 mph 68% 0.00 in 0 W/m2
22:16 63.9 °F 53.1 °F 29.77 in WNW 2.0 mph 3.0 mph 68% 0.00 in 0 W/m2
22:22 64.0 °F 53.2 °F 29.77 in WNW 3.0 mph 3.0 mph 68% 0.00 in 0 W/m2
22:28 64.0 °F 53.2 °F 29.77 in WNW 2.0 mph 3.0 mph 68% 0.00 in 0 W/m2
22:34 63.8 °F 53.0 °F 29.77 in WNW 2.0 mph 5.0 mph 68% 0.00 in 0 W/m2
22:42 63.7 °F 52.9 °F 29.76 in West 2.0 mph 3.0 mph 68% 0.00 in 0 W/m2
22:48 63.4 °F 52.7 °F 29.76 in WNW 2.0 mph 3.0 mph 68% 0.00 in 0 W/m2
23:00 63.0 °F 52.7 °F 29.76 in WNW 2.0 mph 2.0 mph 69% 0.00 in 0 W/m2
23:06 62.9 °F 52.6 °F 29.76 in WNW 1.0 mph 2.0 mph 69% 0.00 in 0 W/m2
23:12 62.8 °F 52.5 °F 29.76 in NW 1.0 mph 3.0 mph 69% 0.00 in 0 W/m2
23:18 62.6 °F 52.3 °F 29.75 in NW 1.0 mph 3.0 mph 69% 0.00 in 0 W/m2
23:24 62.4 °F 52.5 °F 29.75 in NW 1.0 mph 1.0 mph 70% 0.00 in 0 W/m2
23:30 62.3 °F 52.4 °F 29.76 in NW 1.0 mph 1.0 mph 70% 0.00 in 0 W/m2
23:36 62.3 °F 52.8 °F 29.76 in NW 1.0 mph 4.0 mph 71% 0.00 in 0 W/m2
23:42 62.4 °F 52.5 °F 29.76 in WNW 1.0 mph 3.0 mph 70% 0.00 in 0 W/m2
23:48 62.5 °F 52.6 °F 29.75 in WNW 1.0 mph 3.0 mph 70% 0.00 in 0 W/m2
23:54 62.3 °F 52.8 °F 29.76 in WNW 1.0 mph 3.0 mph 71% 0.00 in 0 W/m2
Country Meadow, Clay, NY, USA
Compliments of Weather Underground - 2 mb